Station Historical Data
Daily Summary for May 5, 2011 Units:  English    Metric   Both
« Previous Day
Next Day »
Daily Weekly Monthly Yearly Custom
  High: Low: Average:
Temperature: 66.9 °F 41.0 °F 53.5 °F
Dew Point: 46.1 °F 35.9 °F 40.5 °F
Humidity: 88% 34% 64%
Wind Speed: 10.0mph 0.0mph 2.5mph
Wind Gust: 11.0mph - -
Wind- - ESE
Pressure: 30.33 in 30.06 in -
Precipitation: 0.00 in    
Historical Graphs
 
 
Tabular Data for May 5, 2011
Time Temperature Dew Point Pressure Wind Wind Speed Wind Gust Humidity Rainfall Rate (Hourly) Conditions
00:00 48.0 °F 40.8 °F 30.33 in NNE 3.0 mph 3.0 mph 76% 0.00 in
00:01 48.0 °F 40.8 °F 30.33 in NNE 2.0 mph 3.0 mph 76% 0.00 in
00:05 47.9 °F 40.7 °F 30.33 in NNE 2.0 mph 4.0 mph 76% 0.00 in
00:06 47.9 °F 40.7 °F 30.33 in NNE 2.0 mph 4.0 mph 76% 0.00 in
00:11 47.8 °F 40.6 °F 30.33 in NE 4.0 mph 5.0 mph 76% 0.00 in
00:16 47.8 °F 40.6 °F 30.33 in NE 3.0 mph 4.0 mph 76% 0.00 in
00:21 47.8 °F 40.6 °F 30.33 in NE 2.0 mph 4.0 mph 76% 0.00 in
00:26 47.7 °F 40.5 °F 30.33 in NE 3.0 mph 5.0 mph 76% 0.00 in
00:27 47.7 °F 40.5 °F 30.33 in NE 2.0 mph 5.0 mph 76% 0.00 in
00:28 47.6 °F 40.4 °F 30.33 in NNE 2.0 mph 5.0 mph 76% 0.00 in
00:33 47.6 °F 40.4 °F 30.33 in NE 2.0 mph 4.0 mph 76% 0.00 in
00:34 47.6 °F 40.4 °F 30.33 in NE 2.0 mph 4.0 mph 76% 0.00 in
00:37 47.5 °F 40.3 °F 30.33 in NNE 3.0 mph 5.0 mph 76% 0.00 in
00:43 47.5 °F 40.3 °F 30.33 in NNE 2.0 mph 4.0 mph 76% 0.00 in
00:48 47.4 °F 40.2 °F 30.33 in North 2.0 mph 6.0 mph 76% 0.00 in
00:49 47.3 °F 40.1 °F 30.33 in NE 2.0 mph 6.0 mph 76% 0.00 in
00:54 47.2 °F 40.4 °F 30.33 in NE 3.0 mph 5.0 mph 77% 0.00 in
00:56 47.1 °F 40.3 °F 30.33 in NNE 3.0 mph 5.0 mph 77% 0.00 in
00:59 47.2 °F 40.4 °F 30.33 in NNE 4.0 mph 4.0 mph 77% 0.00 in
01:04 47.1 °F 39.9 °F 30.33 in NE 3.0 mph 4.0 mph 76% 0.00 in
01:09 47.1 °F 39.9 °F 30.33 in NNE 2.0 mph 4.0 mph 76% 0.00 in
01:14 47.0 °F 40.2 °F 30.33 in NE 3.0 mph 5.0 mph 77% 0.00 in
01:20 46.9 °F 40.1 °F 30.33 in NE 1.0 mph 3.0 mph 77% 0.00 in
01:25 46.8 °F 40.0 °F 30.33 in NNE 1.0 mph 3.0 mph 77% 0.00 in
01:30 46.7 °F 39.9 °F 30.33 in NE 1.0 mph 3.0 mph 77% 0.00 in
01:31 46.7 °F 39.9 °F 30.33 in NE 1.0 mph 3.0 mph 77% 0.00 in
01:35 46.6 °F 39.8 °F 30.33 in NNE 2.0 mph 2.0 mph 77% 0.00 in
01:36 46.6 °F 39.8 °F 30.33 in NNE 2.0 mph 2.0 mph 77% 0.00 in
01:40 46.4 °F 39.6 °F 30.33 in NNE 1.0 mph 2.0 mph 77% 0.00 in
01:46 46.2 °F 39.7 °F 30.33 in NE 1.0 mph 3.0 mph 78% 0.00 in
01:51 45.9 °F 39.8 °F 30.33 in NE 4.0 mph 4.0 mph 79% 0.00 in
01:52 45.9 °F 39.8 °F 30.33 in NE 2.0 mph 4.0 mph 79% 0.00 in
01:56 45.9 °F 39.8 °F 30.33 in NNE 2.0 mph 3.0 mph 79% 0.00 in
01:57 45.9 °F 39.8 °F 30.33 in NNE 2.0 mph 3.0 mph 79% 0.00 in
01:58 45.9 °F 39.8 °F 30.33 in NNE 1.0 mph 3.0 mph 79% 0.00 in
02:03 45.9 °F 39.8 °F 30.33 in NE 2.0 mph 2.0 mph 79% 0.00 in
02:08 45.9 °F 39.8 °F 30.33 in NE 4.0 mph 4.0 mph 79% 0.00 in
02:13 45.9 °F 39.8 °F 30.33 in NE 2.0 mph 3.0 mph 79% 0.00 in
02:14 45.8 °F 39.7 °F 30.33 in NNE 1.0 mph 3.0 mph 79% 0.00 in
02:19 45.7 °F 39.6 °F 30.33 in NNE 1.0 mph 2.0 mph 79% 0.00 in
02:24 45.6 °F 39.8 °F 30.32 in NNE 3.0 mph 3.0 mph 80% 0.00 in
02:29 45.4 °F 39.6 °F 30.32 in NNE 3.0 mph 4.0 mph 80% 0.00 in
02:30 45.4 °F 39.6 °F 30.32 in NNE 1.0 mph 4.0 mph 80% 0.00 in
02:31 45.4 °F 39.6 °F 30.32 in NNE 3.0 mph 4.0 mph 80% 0.00 in
02:35 45.4 °F 39.6 °F 30.32 in NNE 2.0 mph 4.0 mph 80% 0.00 in
02:37 45.3 °F 39.5 °F 30.32 in NE 2.0 mph 4.0 mph 80% 0.00 in
02:40 45.2 °F 39.4 °F 30.32 in NNE 3.0 mph 4.0 mph 80% 0.00 in
02:42 45.2 °F 39.4 °F 30.32 in NNE 3.0 mph 4.0 mph 80% 0.00 in
02:47 45.1 °F 39.3 °F 30.32 in North 2.0 mph 4.0 mph 80% 0.00 in
02:48 45.0 °F 39.2 °F 30.32 in NNE 3.0 mph 3.0 mph 80% 0.00 in
02:53 44.8 °F 39.3 °F 30.32 in NNE 2.0 mph 4.0 mph 81% 0.00 in
02:54 44.8 °F 39.3 °F 30.32 in NNE 3.0 mph 3.0 mph 81% 0.00 in
02:57 44.7 °F 39.2 °F 30.31 in NE 3.0 mph 4.0 mph 81% 0.00 in
02:59 44.7 °F 39.2 °F 30.32 in NNE 2.0 mph 4.0 mph 81% 0.00 in
03:02 44.5 °F 39.4 °F 30.32 in NE 4.0 mph 5.0 mph 82% 0.00 in
03:07 44.4 °F 39.3 °F 30.32 in NE 2.0 mph 4.0 mph 82% 0.00 in
03:12 44.5 °F 39.4 °F 30.31 in NNE 1.0 mph 4.0 mph 82% 0.00 in
03:13 44.5 °F 39.4 °F 30.32 in NNE 2.0 mph 3.0 mph 82% 0.00 in
03:18 44.5 °F 39.0 °F 30.31 in NE 5.0 mph 5.0 mph 81% 0.00 in
03:23 44.7 °F 39.2 °F 30.31 in NE 1.0 mph 4.0 mph 81% 0.00 in
03:28 44.6 °F 39.1 °F 30.31 in ENE 3.0 mph 4.0 mph 81% 0.00 in
03:29 44.6 °F 39.1 °F 30.31 in NNE 2.0 mph 4.0 mph 81% 0.00 in
03:33 44.7 °F 39.2 °F 30.31 in NE 2.0 mph 4.0 mph 81% 0.00 in
03:38 44.7 °F 39.2 °F 30.32 in ENE 1.0 mph 3.0 mph 81% 0.00 in
03:43 44.5 °F 39.0 °F 30.31 in NE 2.0 mph 3.0 mph 81% 0.00 in
03:49 44.4 °F 38.9 °F 30.31 in NE 2.0 mph 3.0 mph 81% 0.00 in
03:54 44.3 °F 39.2 °F 30.31 in NE 1.0 mph 4.0 mph 82% 0.00 in
03:59 44.3 °F 39.2 °F 30.31 in NE 2.0 mph 3.0 mph 82% 0.00 in
04:00 44.3 °F 39.2 °F 30.31 in ENE 2.0 mph 3.0 mph 82% 0.00 in
04:05 44.3 °F 39.2 °F 30.32 in NNE 3.0 mph 5.0 mph 82% 0.00 in
04:10 44.0 °F 38.9 °F 30.31 in NNE 3.0 mph 3.0 mph 82% 0.00 in
04:15 43.9 °F 39.1 °F 30.31 in NE 3.0 mph 4.0 mph 83% 0.00 in
04:20 43.7 °F 38.9 °F 30.31 in NE 2.0 mph 4.0 mph 83% 0.00 in
04:25 43.7 °F 38.9 °F 30.31 in NE 3.0 mph 5.0 mph 83% 0.00 in
04:26 43.6 °F 38.8 °F 30.31 in NE 4.0 mph 5.0 mph 83% 0.00 in
04:31 43.6 °F 39.1 °F 30.31 in NNE 3.0 mph 5.0 mph 84% 0.00 in
04:32 43.6 °F 39.1 °F 30.31 in NE 2.0 mph 5.0 mph 84% 0.00 in
04:33 43.6 °F 39.1 °F 30.31 in NE 2.0 mph 5.0 mph 84% 0.00 in
04:37 43.4 °F 38.9 °F 30.31 in NE 2.0 mph 3.0 mph 84% 0.00 in
04:42 43.3 °F 38.8 °F 30.31 in NNE 2.0 mph 3.0 mph 84% 0.00 in
04:47 43.2 °F 39.0 °F 30.32 in NE 1.0 mph 3.0 mph 85% 0.00 in
04:52 43.2 °F 39.0 °F 30.32 in Calm   2.0 mph 85% 0.00 in
04:53 43.2 °F 39.0 °F 30.32 in Calm   2.0 mph 85% 0.00 in
04:55 43.1 °F 38.9 °F 30.32 in ENE 2.0 mph 2.0 mph 85% 0.00 in
04:58 42.9 °F 38.7 °F 30.32 in NNE 1.0 mph 2.0 mph 85% 0.00 in
05:00 42.8 °F 38.6 °F 30.32 in NE 3.0 mph 4.0 mph 85% 0.00 in
05:05 42.7 °F 38.8 °F 30.32 in NE 2.0 mph 3.0 mph 86% 0.00 in
05:10 42.5 °F 38.6 °F 30.32 in East 1.0 mph 2.0 mph 86% 0.00 in
05:15 42.4 °F 38.5 °F 30.32 in NE 2.0 mph 3.0 mph 86% 0.00 in
05:20 42.3 °F 38.7 °F 30.32 in NE 1.0 mph 2.0 mph 87% 0.00 in
05:21 42.3 °F 38.7 °F 30.32 in NE 1.0 mph 2.0 mph 87% 0.00 in
05:26 42.2 °F 38.6 °F 30.32 in ENE 1.0 mph 2.0 mph 87% 0.00 in
05:27 42.2 °F 38.6 °F 30.32 in Calm   2.0 mph 87% 0.00 in
05:31 42.2 °F 38.6 °F 30.32 in ENE 1.0 mph 2.0 mph 87% 0.00 in
05:32 42.2 °F 38.6 °F 30.32 in ENE 1.0 mph 2.0 mph 87% 0.00 in
05:36 42.2 °F 38.6 °F 30.32 in NE 2.0 mph 2.0 mph 87% 0.00 in
05:37 42.1 °F 38.5 °F 30.32 in NE 2.0 mph 2.0 mph 87% 0.00 in
05:41 41.9 °F 38.3 °F 30.32 in ENE 2.0 mph 2.0 mph 87% 0.00 in
05:46 42.0 °F 38.4 °F 30.31 in ENE 1.0 mph 2.0 mph 87% 0.00 in
05:51 41.9 °F 38.3 °F 30.31 in ENE 2.0 mph 2.0 mph 87% 0.00 in
05:57 42.0 °F 38.4 °F 30.31 in ENE 1.0 mph 3.0 mph 87% 0.00 in
05:58 42.0 °F 38.4 °F 30.31 in Calm   3.0 mph 87% 0.00 in
06:03 42.0 °F 38.4 °F 30.31 in ENE 1.0 mph 2.0 mph 87% 0.00 in
06:04 42.0 °F 38.4 °F 30.31 in ENE 3.0 mph 3.0 mph 87% 0.00 in
06:09 41.9 °F 38.3 °F 30.31 in ENE 1.0 mph 2.0 mph 87% 0.00 in
06:14 41.8 °F 38.2 °F 30.31 in ENE 1.0 mph 1.0 mph 87% 0.00 in
06:19 41.5 °F 37.9 °F 30.31 in East 2.0 mph 2.0 mph 87% 0.00 in
06:24 41.4 °F 38.1 °F 30.31 in ESE 1.0 mph 2.0 mph 88% 0.00 in
06:29 41.0 °F 37.7 °F 30.31 in East 1.0 mph 1.0 mph 88% 0.00 in
06:31 41.0 °F 37.7 °F 30.31 in Calm   1.0 mph 88% 0.00 in
06:32 41.0 °F 37.7 °F 30.31 in East 1.0 mph 1.0 mph 88% 0.00 in
06:36 41.0 °F 37.7 °F 30.31 in Calm   1.0 mph 88% 0.00 in
06:38 41.0 °F 37.7 °F 30.31 in Calm   1.0 mph 88% 0.00 in
06:43 41.1 °F 37.8 °F 30.31 in NNE 2.0 mph 3.0 mph 88% 0.00 in
06:48 41.5 °F 37.9 °F 30.31 in ENE 2.0 mph 4.0 mph 87% 0.00 in
06:53 41.7 °F 38.1 °F 30.31 in ENE 2.0 mph 3.0 mph 87% 0.00 in
06:58 41.8 °F 37.9 °F 30.31 in ENE 3.0 mph 5.0 mph 86% 0.00 in
06:59 41.8 °F 37.9 °F 30.31 in NE 2.0 mph 5.0 mph 86% 0.00 in
07:04 41.8 °F 37.9 °F 30.31 in ENE 2.0 mph 4.0 mph 86% 0.00 in
07:05 41.9 °F 38.0 °F 30.31 in NE 2.0 mph 4.0 mph 86% 0.00 in
07:10 42.0 °F 38.1 °F 30.31 in ENE 2.0 mph 5.0 mph 86% 0.00 in
07:11 42.0 °F 38.1 °F 30.31 in East 2.0 mph 5.0 mph 86% 0.00 in
07:16 42.1 °F 37.9 °F 30.31 in NE 2.0 mph 5.0 mph 85% 0.00 in
07:21 42.2 °F 38.0 °F 30.31 in ENE 1.0 mph 5.0 mph 85% 0.00 in
07:26 42.3 °F 38.1 °F 30.31 in NNE 2.0 mph 3.0 mph 85% 0.00 in
07:27 42.4 °F 38.2 °F 30.31 in NE 3.0 mph 3.0 mph 85% 0.00 in
07:31 42.5 °F 38.0 °F 30.31 in ESE 2.0 mph 4.0 mph 84% 0.00 in
07:34 42.6 °F 38.1 °F 30.31 in ESE 2.0 mph 2.0 mph 84% 0.00 in
07:35 42.6 °F 38.1 °F 30.31 in East 4.0 mph 4.0 mph 84% 0.00 in
07:36 42.7 °F 38.2 °F 30.31 in East 1.0 mph 4.0 mph 84% 0.00 in
07:41 42.9 °F 38.4 °F 30.31 in East 1.0 mph 4.0 mph 84% 0.00 in
07:46 43.6 °F 38.8 °F 30.31 in East 3.0 mph 4.0 mph 83% 0.00 in
07:51 43.9 °F 38.5 °F 30.31 in ENE 2.0 mph 6.0 mph 81% 0.00 in
07:52 44.0 °F 38.5 °F 30.31 in East 2.0 mph 6.0 mph 81% 0.00 in
07:56 44.2 °F 38.8 °F 30.31 in East 3.0 mph 5.0 mph 81% 0.00 in
07:57 44.2 °F 38.4 °F 30.31 in ENE 2.0 mph 3.0 mph 80% 0.00 in
08:02 44.5 °F 38.7 °F 30.31 in ESE 2.0 mph 4.0 mph 80% 0.00 in
08:07 44.8 °F 38.4 °F 30.31 in East 4.0 mph 7.0 mph 78% 0.00 in
08:12 45.0 °F 38.9 °F 30.31 in East 1.0 mph 5.0 mph 79% 0.00 in
08:17 45.5 °F 38.7 °F 30.31 in NE 2.0 mph 4.0 mph 77% 0.00 in
08:18 45.5 °F 38.7 °F 30.31 in ENE 4.0 mph 4.0 mph 77% 0.00 in
08:23 45.9 °F 39.1 °F 30.31 in NE 3.0 mph 4.0 mph 77% 0.00 in
08:28 46.2 °F 39.1 °F 30.32 in East 5.0 mph 6.0 mph 76% 0.00 in
08:29 46.2 °F 39.1 °F 30.32 in ENE 2.0 mph 6.0 mph 76% 0.00 in
08:34 46.4 °F 39.3 °F 30.32 in ENE 4.0 mph 7.0 mph 76% 0.00 in
08:38 46.7 °F 39.5 °F 30.32 in East 2.0 mph 4.0 mph 76% 0.00 in
08:39 46.7 °F 39.5 °F 30.32 in ENE 2.0 mph 4.0 mph 76% 0.00 in
08:44 47.5 °F 40.3 °F 30.32 in East 5.0 mph 5.0 mph 76% 0.00 in
08:49 47.9 °F 40.4 °F 30.32 in East 4.0 mph 5.0 mph 75% 0.00 in
08:54 48.3 °F 40.4 °F 30.32 in East 5.0 mph 5.0 mph 74% 0.00 in
08:59 48.5 °F 39.9 °F 30.32 in ENE 4.0 mph 7.0 mph 72% 0.00 in
09:04 49.0 °F 40.7 °F 30.32 in East 4.0 mph 5.0 mph 73% 0.00 in
09:09 49.3 °F 40.7 °F 30.32 in SE 2.0 mph 7.0 mph 72% 0.00 in
09:10 49.4 °F 40.8 °F 30.32 in East 3.0 mph 7.0 mph 72% 0.00 in
09:15 50.1 °F 41.1 °F 30.32 in ESE 7.0 mph 7.0 mph 71% 0.00 in
09:20 50.4 °F 41.0 °F 30.32 in SE 6.0 mph 6.0 mph 70% 0.00 in
09:25 50.6 °F 40.4 °F 30.32 in ENE 5.0 mph 7.0 mph 68% 0.00 in
09:26 50.6 °F 40.4 °F 30.32 in ESE 6.0 mph 7.0 mph 68% 0.00 in
09:31 50.9 °F 41.1 °F 30.32 in ENE 4.0 mph 7.0 mph 69% 0.00 in
09:36 51.4 °F 40.4 °F 30.32 in NE 6.0 mph 6.0 mph 66% 0.00 in
09:37 51.5 °F 41.3 °F 30.32 in ENE 6.0 mph 6.0 mph 68% 0.00 in
09:42 51.7 °F 40.3 °F 30.31 in ENE 6.0 mph 11.0 mph 65% 0.00 in
09:47 52.0 °F 41.0 °F 30.32 in ESE 9.0 mph 9.0 mph 66% 0.00 in
09:52 52.3 °F 40.9 °F 30.32 in East 2.0 mph 8.0 mph 65% 0.00 in
09:57 52.6 °F 42.0 °F 30.32 in East 6.0 mph 7.0 mph 67% 0.00 in
09:58 52.7 °F 41.7 °F 30.31 in East 4.0 mph 7.0 mph 66% 0.00 in
10:02 52.9 °F 41.1 °F 30.31 in East 4.0 mph 10.0 mph 64% 0.00 in
10:03 52.9 °F 40.7 °F 30.31 in ESE 5.0 mph 10.0 mph 63% 0.00 in
10:08 53.2 °F 41.3 °F 30.31 in ESE 6.0 mph 10.0 mph 64% 0.00 in
10:13 53.3 °F 41.8 °F 30.31 in SE 8.0 mph 9.0 mph 65% 0.00 in
10:18 53.5 °F 40.8 °F 30.31 in SE 3.0 mph 7.0 mph 62% 0.00 in
10:23 53.6 °F 41.3 °F 30.31 in SE 6.0 mph 7.0 mph 63% 0.00 in
10:28 53.9 °F 41.2 °F 30.30 in ESE 5.0 mph 8.0 mph 62% 0.00 in
10:29 53.9 °F 40.8 °F 30.30 in ENE 6.0 mph 8.0 mph 61% 0.00 in
10:32 54.0 °F 40.4 °F 30.31 in ENE 3.0 mph 7.0 mph 60% 0.00 in
10:34 54.2 °F 40.6 °F 30.30 in NE 4.0 mph 5.0 mph 60% 0.00 in
10:35 54.2 °F 40.2 °F 30.30 in East 2.0 mph 5.0 mph 59% 0.00 in
10:37 54.3 °F 39.8 °F 30.30 in East 10.0 mph 10.0 mph 58% 0.00 in
10:40 54.4 °F 39.0 °F 30.30 in ESE 7.0 mph 10.0 mph 56% 0.00 in
10:42 54.4 °F 39.0 °F 30.30 in ESE 5.0 mph 8.0 mph 56% 0.00 in
10:47 54.7 °F 39.3 °F 30.30 in ESE 5.0 mph 9.0 mph 56% 0.00 in
10:52 54.6 °F 38.3 °F 30.30 in East 7.0 mph 9.0 mph 54% 0.00 in
10:53 54.6 °F 38.8 °F 30.30 in ESE 6.0 mph 9.0 mph 55% 0.00 in
10:57 54.9 °F 39.5 °F 30.30 in ENE 5.0 mph 7.0 mph 56% 0.00 in
10:58 54.8 °F 39.4 °F 30.30 in East 4.0 mph 7.0 mph 56% 0.00 in
11:03 55.1 °F 39.7 °F 30.30 in ENE 5.0 mph 10.0 mph 56% 0.00 in
11:08 55.6 °F 39.2 °F 30.29 in ENE 4.0 mph 5.0 mph 54% 0.00 in
11:09 55.6 °F 39.2 °F 30.29 in East 5.0 mph 6.0 mph 54% 0.00 in
11:15 55.8 °F 39.9 °F 30.29 in SE 4.0 mph 9.0 mph 55% 0.00 in
11:20 56.1 °F 39.7 °F 30.29 in SE 5.0 mph 9.0 mph 54% 0.00 in
11:25 55.9 °F 38.0 °F 30.29 in ESE 4.0 mph 10.0 mph 51% 0.00 in
11:26 55.9 °F 37.0 °F 30.29 in ESE 3.0 mph 10.0 mph 49% 0.00 in
11:27 55.9 °F 37.0 °F 30.29 in SE 7.0 mph 10.0 mph 49% 0.00 in
11:31 56.1 °F 39.7 °F 30.29 in South 6.0 mph 8.0 mph 54% 0.00 in
11:33 56.5 °F 41.5 °F 30.29 in SE 2.0 mph 7.0 mph 57% 0.00 in
11:38 56.6 °F 40.2 °F 30.29 in SSE 6.0 mph 8.0 mph 54% 0.00 in
11:43 57.1 °F 39.7 °F 30.29 in SE 4.0 mph 8.0 mph 52% 0.00 in
11:45 57.1 °F 39.2 °F 30.29 in SSE 6.0 mph 8.0 mph 51% 0.00 in
11:49 57.4 °F 39.4 °F 30.28 in SE 7.0 mph 9.0 mph 51% 0.00 in
11:54 57.3 °F 39.3 °F 30.28 in SE 3.0 mph 7.0 mph 51% 0.00 in
11:55 57.4 °F 39.4 °F 30.28 in ESE 3.0 mph 5.0 mph 51% 0.00 in
11:59 57.8 °F 40.3 °F 30.28 in ESE 7.0 mph 8.0 mph 52% 0.00 in
12:00 57.9 °F 39.4 °F 30.28 in SE 5.0 mph 8.0 mph 50% 0.00 in
12:06 57.8 °F 38.8 °F 30.28 in East 4.0 mph 8.0 mph 49% 0.00 in
12:11 57.9 °F 39.4 °F 30.28 in SE 4.0 mph 6.0 mph 50% 0.00 in
12:16 58.6 °F 39.5 °F 30.28 in South 2.0 mph 3.0 mph 49% 0.00 in
12:17 58.8 °F 39.7 °F 30.28 in ESE 3.0 mph 3.0 mph 49% 0.00 in
12:22 58.9 °F 38.2 °F 30.28 in ESE 6.0 mph 6.0 mph 46% 0.00 in
12:27 58.6 °F 37.9 °F 30.28 in ENE 3.0 mph 4.0 mph 46% 0.00 in
12:32 59.3 °F 40.2 °F 30.28 in SSE 4.0 mph 4.0 mph 49% 0.00 in
12:33 59.4 °F 40.2 °F 30.28 in East 2.0 mph 4.0 mph 49% 0.00 in
12:37 59.7 °F 41.0 °F 30.28 in NE 2.0 mph 4.0 mph 50% 0.00 in
12:38 59.7 °F 41.0 °F 30.28 in North 3.0 mph 4.0 mph 50% 0.00 in
12:43 60.0 °F 42.3 °F 30.27 in NW 4.0 mph 4.0 mph 52% 0.00 in
12:48 59.6 °F 39.4 °F 30.27 in NNE 6.0 mph 7.0 mph 47% 0.00 in
12:53 58.7 °F 38.5 °F 30.27 in NW 3.0 mph 7.0 mph 47% 0.00 in
12:58 58.9 °F 40.3 °F 30.26 in NNW 3.0 mph 3.0 mph 50% 0.00 in
13:03 59.3 °F 40.2 °F 30.26 in NE 1.0 mph 5.0 mph 49% 0.00 in
13:04 59.3 °F 40.2 °F 30.26 in NE 1.0 mph 5.0 mph 49% 0.00 in
13:09 59.3 °F 41.7 °F 30.25 in NE 2.0 mph 4.0 mph 52% 0.00 in
13:14 59.8 °F 41.7 °F 30.25 in NNW 2.0 mph 3.0 mph 51% 0.00 in
13:19 59.9 °F 40.2 °F 30.25 in NNW 2.0 mph 4.0 mph 48% 0.00 in
13:24 60.0 °F 40.3 °F 30.25 in NNW 1.0 mph 4.0 mph 48% 0.00 in
13:26 60.2 °F 39.9 °F 30.24 in Calm   3.0 mph 47% 0.00 in
13:29 60.8 °F 41.0 °F 30.24 in East 4.0 mph 4.0 mph 48% 0.00 in
13:30 60.8 °F 41.0 °F 30.24 in ESE 1.0 mph 4.0 mph 48% 0.00 in
13:34 61.2 °F 40.8 °F 30.24 in SSW 2.0 mph 2.0 mph 47% 0.00 in
13:35 61.4 °F 39.9 °F 30.24 in SSE 1.0 mph 3.0 mph 45% 0.00 in
13:36 61.7 °F 41.8 °F 30.24 in SSW 2.0 mph 3.0 mph 48% 0.00 in
13:37 61.8 °F 41.9 °F 30.24 in SSW 1.0 mph 3.0 mph 48% 0.00 in
13:41 61.8 °F 39.1 °F 30.24 in WNW 3.0 mph 4.0 mph 43% 0.00 in
13:46 62.2 °F 42.3 °F 30.23 in North 4.0 mph 6.0 mph 48% 0.00 in
13:51 62.4 °F 41.4 °F 30.23 in SSW 3.0 mph 3.0 mph 46% 0.00 in
13:52 62.4 °F 41.4 °F 30.23 in SSW 3.0 mph 3.0 mph 46% 0.00 in
13:56 62.5 °F 41.5 °F 30.23 in SW 2.0 mph 5.0 mph 46% 0.00 in
13:57 62.5 °F 40.3 °F 30.23 in SW 1.0 mph 5.0 mph 44% 0.00 in
14:02 62.5 °F 40.3 °F 30.22 in West 1.0 mph 3.0 mph 44% 0.00 in
14:07 63.0 °F 39.0 °F 30.22 in SE 4.0 mph 6.0 mph 41% 0.00 in
14:12 63.4 °F 41.7 °F 30.22 in ENE 6.0 mph 6.0 mph 45% 0.00 in
14:17 62.8 °F 40.0 °F 30.21 in ENE 1.0 mph 5.0 mph 43% 0.00 in
14:22 63.3 °F 41.6 °F 30.21 in SSE 2.0 mph 6.0 mph 45% 0.00 in
14:27 64.0 °F 41.1 °F 30.21 in NW 2.0 mph 2.0 mph 43% 0.00 in
14:28 64.1 °F 41.8 °F 30.21 in NW 2.0 mph 2.0 mph 44% 0.00 in
14:33 63.8 °F 39.7 °F 30.21 in WNW 2.0 mph 5.0 mph 41% 0.00 in
14:34 63.6 °F 38.9 °F 30.21 in WSW 5.0 mph 6.0 mph 40% 0.00 in
14:38 63.7 °F 39.0 °F 30.21 in SE 2.0 mph 3.0 mph 40% 0.00 in
14:39 64.1 °F 40.6 °F 30.20 in SSW 4.0 mph 4.0 mph 42% 0.00 in
14:43 64.3 °F 40.7 °F 30.20 in West 1.0 mph 5.0 mph 42% 0.00 in
14:45 64.1 °F 39.3 °F 30.20 in Calm   4.0 mph 40% 0.00 in
14:48 64.1 °F 39.9 °F 30.20 in ESE 5.0 mph 9.0 mph 41% 0.00 in
14:53 64.1 °F 42.9 °F 30.20 in SE 4.0 mph 7.0 mph 46% 0.00 in
14:54 64.2 °F 41.3 °F 30.20 in SSE 5.0 mph 7.0 mph 43% 0.00 in
14:55 64.3 °F 41.9 °F 30.20 in SSW 4.0 mph 7.0 mph 44% 0.00 in
14:58 64.5 °F 39.7 °F 30.19 in West 1.0 mph 8.0 mph 40% 0.00 in
14:59 64.5 °F 39.7 °F 30.19 in SE 5.0 mph 7.0 mph 40% 0.00 in
15:03 64.4 °F 39.6 °F 30.19 in SSE 3.0 mph 6.0 mph 40% 0.00 in
15:08 64.5 °F 39.7 °F 30.19 in WNW 2.0 mph 5.0 mph 40% 0.00 in
15:13 64.5 °F 38.3 °F 30.18 in WSW 1.0 mph 3.0 mph 38% 0.00 in
15:18 65.0 °F 37.4 °F 30.18 in SSW 3.0 mph 5.0 mph 36% 0.00 in
15:19 64.9 °F 35.9 °F 30.18 in SW 2.0 mph 5.0 mph 34% 0.00 in
15:24 64.9 °F 36.6 °F 30.18 in SSW 4.0 mph 5.0 mph 35% 0.00 in
15:29 64.9 °F 36.6 °F 30.18 in SE 2.0 mph 5.0 mph 35% 0.00 in
15:32 65.0 °F 39.5 °F 30.18 in WSW 4.0 mph 4.0 mph 39% 0.00 in
15:34 65.2 °F 38.3 °F 30.18 in SSE 2.0 mph 4.0 mph 37% 0.00 in
15:36 65.4 °F 37.8 °F 30.18 in SW 1.0 mph 2.0 mph 36% 0.00 in
15:41 65.4 °F 37.1 °F 30.17 in East 1.0 mph 6.0 mph 35% 0.00 in
15:46 65.1 °F 37.5 °F 30.17 in SSW 3.0 mph 4.0 mph 36% 0.00 in
15:48 65.0 °F 40.1 °F 30.17 in SW 2.0 mph 5.0 mph 40% 0.00 in
15:52 65.2 °F 38.3 °F 30.17 in SSE 4.0 mph 7.0 mph 37% 0.00 in
15:53 65.4 °F 37.8 °F 30.17 in SE 2.0 mph 7.0 mph 36% 0.00 in
15:54 65.4 °F 37.8 °F 30.16 in SSE 2.0 mph 7.0 mph 36% 0.00 in
15:57 65.5 °F 38.6 °F 30.16 in SSE 2.0 mph 5.0 mph 37% 0.00 in
15:58 65.4 °F 37.8 °F 30.16 in ENE 1.0 mph 5.0 mph 36% 0.00 in
15:59 65.4 °F 37.8 °F 30.16 in NE 1.0 mph 5.0 mph 36% 0.00 in
16:04 65.3 °F 37.7 °F 30.15 in SE 2.0 mph 5.0 mph 36% 0.00 in
16:09 65.7 °F 38.7 °F 30.15 in Calm   4.0 mph 37% 0.00 in
16:14 65.8 °F 42.1 °F 30.15 in SW 3.0 mph 5.0 mph 42% 0.00 in
16:19 66.2 °F 43.1 °F 30.14 in SSW 7.0 mph 7.0 mph 43% 0.00 in
16:24 66.1 °F 39.8 °F 30.14 in SSW 3.0 mph 5.0 mph 38% 0.00 in
16:29 66.0 °F 39.7 °F 30.14 in NE 3.0 mph 4.0 mph 38% 0.00 in
16:34 66.2 °F 44.2 °F 30.14 in SE 2.0 mph 7.0 mph 45% 0.00 in
16:35 66.3 °F 44.3 °F 30.14 in West 1.0 mph 7.0 mph 45% 0.00 in
16:36 66.4 °F 43.2 °F 30.14 in SSW 3.0 mph 5.0 mph 43% 0.00 in
16:39 66.4 °F 41.4 °F 30.14 in SSE 8.0 mph 8.0 mph 40% 0.00 in
16:41 66.3 °F 43.2 °F 30.14 in WSW 2.0 mph 8.0 mph 43% 0.00 in
16:46 66.3 °F 43.2 °F 30.13 in NNE 2.0 mph 5.0 mph 43% 0.00 in
16:51 66.4 °F 42.0 °F 30.13 in SE 3.0 mph 8.0 mph 41% 0.00 in
16:56 66.3 °F 40.0 °F 30.13 in SE 4.0 mph 7.0 mph 38% 0.00 in
16:57 66.3 °F 40.0 °F 30.13 in SE 6.0 mph 7.0 mph 38% 0.00 in
17:01 66.1 °F 41.7 °F 30.12 in SSE 5.0 mph 6.0 mph 41% 0.00 in
17:06 66.3 °F 40.0 °F 30.12 in South 1.0 mph 5.0 mph 38% 0.00 in
17:11 66.2 °F 40.5 °F 30.12 in Calm   6.0 mph 39% 0.00 in
17:16 66.5 °F 41.5 °F 30.11 in WSW 2.0 mph 2.0 mph 40% 0.00 in
17:21 66.6 °F 42.8 °F 30.11 in South 2.0 mph 4.0 mph 42% 0.00 in
17:27 66.8 °F 41.1 °F 30.11 in South 3.0 mph 4.0 mph 39% 0.00 in
17:29 66.9 °F 43.1 °F 30.11 in South 1.0 mph 3.0 mph 42% 0.00 in
17:33 66.7 °F 41.6 °F 30.10 in ESE 3.0 mph 7.0 mph 40% 0.00 in
17:34 66.4 °F 40.7 °F 30.10 in ESE 2.0 mph 7.0 mph 39% 0.00 in
17:37 66.2 °F 43.1 °F 30.10 in ESE 6.0 mph 7.0 mph 43% 0.00 in
17:40 65.9 °F 41.6 °F 30.10 in ESE 2.0 mph 7.0 mph 41% 0.00 in
17:42 65.7 °F 41.4 °F 30.10 in ESE 3.0 mph 4.0 mph 41% 0.00 in
17:47 66.0 °F 43.5 °F 30.10 in South 3.0 mph 11.0 mph 44% 0.00 in
17:48 66.0 °F 43.5 °F 30.10 in WSW 3.0 mph 11.0 mph 44% 0.00 in
17:53 66.2 °F 40.5 °F 30.10 in SSE 3.0 mph 4.0 mph 39% 0.00 in
17:54 66.3 °F 41.9 °F 30.09 in Calm   3.0 mph 41% 0.00 in
17:55 66.2 °F 40.5 °F 30.09 in East 1.0 mph 3.0 mph 39% 0.00 in
17:58 66.2 °F 41.2 °F 30.10 in SE 5.0 mph 7.0 mph 40% 0.00 in
18:01 65.6 °F 40.7 °F 30.10 in SE 7.0 mph 8.0 mph 40% 0.00 in
18:03 65.5 °F 39.2 °F 30.09 in SE 4.0 mph 8.0 mph 38% 0.00 in
18:06 65.3 °F 40.4 °F 30.09 in SE 4.0 mph 5.0 mph 40% 0.00 in
18:11 64.9 °F 40.0 °F 30.09 in ESE 5.0 mph 5.0 mph 40% 0.00 in
18:16 64.7 °F 44.0 °F 30.09 in SSE 4.0 mph 6.0 mph 47% 0.00 in
18:21 64.5 °F 44.4 °F 30.09 in SE 5.0 mph 7.0 mph 48% 0.00 in
18:26 64.2 °F 44.7 °F 30.09 in South 3.0 mph 7.0 mph 49% 0.00 in
18:31 64.1 °F 45.1 °F 30.09 in SSW 5.0 mph 5.0 mph 50% 0.00 in
18:32 64.1 °F 45.1 °F 30.09 in South 5.0 mph 5.0 mph 50% 0.00 in
18:37 64.1 °F 46.1 °F 30.09 in South 2.0 mph 6.0 mph 52% 0.00 in
18:42 64.5 °F 45.5 °F 30.08 in SE 3.0 mph 4.0 mph 50% 0.00 in
18:47 65.1 °F 45.5 °F 30.08 in SSE 3.0 mph 7.0 mph 49% 0.00 in
18:52 65.4 °F 45.8 °F 30.08 in SSW 4.0 mph 7.0 mph 49% 0.00 in
18:53 65.4 °F 44.7 °F 30.08 in SSW 4.0 mph 7.0 mph 47% 0.00 in
18:54 65.4 °F 45.8 °F 30.08 in SSW 5.0 mph 7.0 mph 49% 0.00 in
18:57 65.2 °F 45.0 °F 30.08 in SE 9.0 mph 9.0 mph 48% 0.00 in
18:59 65.0 °F 44.8 °F 30.08 in South 5.0 mph 9.0 mph 48% 0.00 in
19:06 64.8 °F 43.6 °F 30.08 in South 4.0 mph 8.0 mph 46% 0.00 in
19:11 64.6 °F 43.9 °F 30.08 in SE 5.0 mph 7.0 mph 47% 0.00 in
19:17 64.1 °F 43.5 °F 30.08 in SSE 6.0 mph 7.0 mph 47% 0.00 in
19:22 64.2 °F 43.6 °F 30.08 in SSE 2.0 mph 6.0 mph 47% 0.00 in
19:27 64.4 °F 43.2 °F 30.08 in South 3.0 mph 4.0 mph 46% 0.00 in
19:28 64.5 °F 42.7 °F 30.08 in South 4.0 mph 4.0 mph 45% 0.00 in
19:32 64.4 °F 42.6 °F 30.08 in South 3.0 mph 4.0 mph 45% 0.00 in
19:36 64.4 °F 42.6 °F 30.08 in South 1.0 mph 5.0 mph 45% 0.00 in
19:41 64.6 °F 41.6 °F 30.08 in SSE 4.0 mph 4.0 mph 43% 0.00 in
20:10 64.0 °F 42.8 °F 30.07 in Calm     46% 0.00 in
20:17 63.3 °F 43.3 °F 30.07 in Calm     48% 0.00 in
20:18 63.0 °F 43.6 °F 30.07 in Calm     49% 0.00 in
20:23 61.7 °F 43.4 °F 30.07 in Calm     51% 0.00 in
20:24 61.6 °F 43.3 °F 30.07 in Calm     51% 0.00 in
20:29 60.5 °F 42.8 °F 30.07 in Calm     52% 0.00 in
20:30 60.3 °F 43.6 °F 30.07 in Calm     54% 0.00 in
20:35 59.2 °F 43.5 °F 30.07 in Calm     56% 0.00 in
20:40 58.1 °F 44.7 °F 30.07 in Calm     61% 0.00 in
20:45 57.3 °F 43.1 °F 30.07 in Calm     59% 0.00 in
20:50 56.6 °F 43.3 °F 30.07 in Calm     61% 0.00 in
20:51 56.5 °F 43.2 °F 30.07 in Calm     61% 0.00 in
20:56 55.6 °F 43.2 °F 30.07 in Calm     63% 0.00 in
20:57 55.5 °F 42.7 °F 30.07 in Calm     62% 0.00 in
21:02 54.9 °F 42.1 °F 30.07 in Calm     62% 0.00 in
21:03 54.9 °F 42.1 °F 30.07 in Calm     62% 0.00 in
21:08 54.5 °F 43.0 °F 30.07 in Calm     65% 0.00 in
21:13 53.8 °F 42.7 °F 30.07 in Calm     66% 0.00 in
21:19 53.6 °F 42.1 °F 30.07 in Calm     65% 0.00 in
21:24 53.4 °F 42.7 °F 30.07 in Calm     67% 0.00 in
21:29 53.1 °F 44.3 °F 30.07 in Calm     72% 0.00 in
21:31 53.1 °F 44.3 °F 30.07 in Calm     72% 0.00 in
21:34 53.3 °F 44.9 °F 30.07 in Calm   1.0 mph 73% 0.00 in
21:36 53.2 °F 44.4 °F 30.07 in Calm   1.0 mph 72% 0.00 in
21:41 52.8 °F 43.7 °F 30.07 in Calm     71% 0.00 in
21:46 52.4 °F 43.3 °F 30.07 in Calm     71% 0.00 in
21:51 52.1 °F 43.0 °F 30.07 in SSW 1.0 mph 1.0 mph 71% 0.00 in
21:52 52.2 °F 43.5 °F 30.07 in SSW 1.0 mph 1.0 mph 72% 0.00 in
21:56 52.4 °F 42.5 °F 30.07 in SSW 1.0 mph 1.0 mph 69% 0.00 in
21:57 52.4 °F 42.5 °F 30.07 in SSW 1.0 mph 1.0 mph 69% 0.00 in
21:58 52.4 °F 42.9 °F 30.07 in SSW 1.0 mph 1.0 mph 70% 0.00 in
22:02 51.7 °F 43.0 °F 30.07 in Calm     72% 0.00 in
22:03 51.6 °F 43.6 °F 30.07 in Calm     74% 0.00 in
22:08 51.3 °F 43.0 °F 30.07 in Calm     73% 0.00 in
22:13 51.0 °F 43.7 °F 30.08 in Calm     76% 0.00 in
22:19 50.6 °F 43.7 °F 30.07 in Calm     77% 0.00 in
22:20 50.7 °F 44.1 °F 30.07 in Calm     78% 0.00 in
22:26 50.7 °F 44.4 °F 30.08 in NW 1.0 mph 2.0 mph 79% 0.00 in
22:27 50.6 °F 44.7 °F 30.08 in NW 1.0 mph 2.0 mph 80% 0.00 in
22:31 50.3 °F 44.4 °F 30.07 in NE 2.0 mph 2.0 mph 80% 0.00 in
22:35 50.9 °F 40.3 °F 30.07 in ENE 2.0 mph 2.0 mph 67% 0.00 in
22:40 53.9 °F 39.0 °F 30.07 in Calm   2.0 mph 57% 0.00 in
22:45 54.2 °F 41.9 °F 30.07 in NNW 1.0 mph 1.0 mph 63% 0.00 in
22:50 51.3 °F 42.6 °F 30.07 in Calm   1.0 mph 72% 0.00 in
22:51 51.1 °F 43.1 °F 30.07 in Calm     74% 0.00 in
22:55 50.5 °F 42.2 °F 30.07 in Calm     73% 0.00 in
22:56 50.4 °F 42.8 °F 30.07 in Calm     75% 0.00 in
23:00 50.6 °F 42.3 °F 30.06 in ESE 2.0 mph 2.0 mph 73% 0.00 in
23:01 50.7 °F 42.0 °F 30.06 in ESE 1.0 mph 2.0 mph 72% 0.00 in
23:06 51.3 °F 41.1 °F 30.06 in East 2.0 mph 3.0 mph 68% 0.00 in
23:11 52.2 °F 42.0 °F 30.06 in Calm   1.0 mph 68% 0.00 in
23:16 51.3 °F 43.7 °F 30.06 in ESE 1.0 mph 2.0 mph 75% 0.00 in
23:21 50.3 °F 43.4 °F 30.06 in ESE 1.0 mph 1.0 mph 77% 0.00 in
23:27 50.0 °F 43.4 °F 30.06 in WNW 2.0 mph 2.0 mph 78% 0.00 in
23:31 49.1 °F 42.5 °F 30.06 in Calm   1.0 mph 78% 0.00 in
23:34 49.0 °F 42.8 °F 30.06 in WNW 1.0 mph 1.0 mph 79% 0.00 in
23:36 48.9 °F 43.0 °F 30.06 in WNW 1.0 mph 1.0 mph 80% 0.00 in
23:37 48.8 °F 42.9 °F 30.06 in Calm   1.0 mph 80% 0.00 in
23:38 48.7 °F 43.1 °F 30.06 in WNW 1.0 mph 1.0 mph 81% 0.00 in
23:44 48.4 °F 44.4 °F 30.06 in NNW 1.0 mph 2.0 mph 86% 0.00 in
23:51 48.1 °F 44.4 °F 30.06 in Calm   1.0 mph 87% 0.00 in
23:52 48.0 °F 44.0 °F 30.06 in Calm   1.0 mph 86% 0.00 in
23:57 48.4 °F 43.2 °F 30.06 in Calm   1.0 mph 82% 0.00 in
23:58 48.5 °F 43.0 °F 30.06 in North 1.0 mph 1.0 mph 81% 0.00 in
Compliments of Weather Underground